{"data":{"norad_id":68789,"intl_designator":"2026-086Z","name":"STARLINK-37413","alt_names":[],"object_type":"PAYLOAD","status":"ACTIVE","operator":null,"country":"US","launch_date":"2026-04-19","launch_site_code":"AFWTR","launch_vehicle":null,"mission":null,"orbit_class":"UNKNOWN","rcs_meters":null,"size_class":null,"mass_kg":null,"dimensions":null,"purposes":["comms"],"wikipedia_slug":null,"has_3d_model":false,"image_url":null,"decayed_at":null,"tle_current":{"epoch":"2026-05-25T04:00:03.998880Z","epoch_age_seconds":54677,"freshness":"FRESH","line1":"1 68789U 26086Z   26145.16671295 -.01930366  00000+0 -22536-1 0  9993","line2":"2 68789  97.2847 182.0415 0001121  73.7812 312.1477 15.64725978  6073","mean_motion":15.64725978,"eccentricity":0.0001121,"inclination_deg":97.2847,"raan_deg":182.0415,"arg_perigee_deg":73.7812,"mean_anomaly_deg":312.1477,"bstar":-0.022536,"rev_number":607,"period_min":92.028893253282,"perigee_km":373.27004013532,"apogee_km":374.78387529464,"semimajor_km":6752.163957715,"source":"CELESTRAK","updated_at":"2026-05-25T13:38:22.039325Z"}}}